When you browse on this site, cookies collect data to enhance your experience and personalize the content and advertising you see.
Visit our Privacy Policy to learn more. By continuing to use the site, you agree to this use of cookies and data.
  • En España
  • Lista de países
  • Para 7 días
  • Temperatura del agua
  • Mapa Satelital
  • El tiempo en el mapa
  • Informadores
  • user-avatar
    Iniciar sesión

    Tiempo cada hora Sekondi

    Hoy, 17 Noviembre, Sábado

    Tiempo Temperatura Precipitaciones Viento Presión Humedad
    00:00 +27°C° 0 mm 2 mps 758 mmHg 93%
    01:00 +27°C° 0 mm 1 mps 757 mmHg 93%
    02:00 +26°C° 0 mm 1 mps 757 mmHg 93%
    03:00 +26°C° 0 mm 1 mps 757 mmHg 94%
    04:00 +26°C° 0 mm 1 mps 757 mmHg 94%
    05:00 +26°C° 0 mm 1 mps 757 mmHg 95%
    06:00 +26°C° 0 mm 1 mps 758 mmHg 95%
    07:00 +28°C° 0 mm 1 mps 758 mmHg 88%
    08:00 +30°C° 0 mm 1 mps 758 mmHg 80%
    09:00 +31°C° 0 mm 1 mps 758 mmHg 72%
    10:00 +32°C° 0 mm 2 mps 758 mmHg 67%
    11:00 +34°C° 0 mm 2 mps 758 mmHg 62%
    12:00 +35°C° 0 mm 2 mps 757 mmHg 57%
    13:00 +35°C° 0.2 mm 3 mps 757 mmHg 60%
    14:00 +34°C° 0.2 mm 3 mps 756 mmHg 62%
    15:00 +34°C° 0.2 mm 3 mps 756 mmHg 64%
    16:00 +33°C° 0.2 mm 3 mps 756 mmHg 71%
    17:00 +30°C° 0.2 mm 3 mps 757 mmHg 77%
    18:00 +29°C° 0.2 mm 3 mps 757 mmHg 83%
    19:00 +28°C° 0 mm 2 mps 757 mmHg 85%
    20:00 +28°C° 0 mm 2 mps 758 mmHg 87%
    21:00 +27°C° 0 mm 2 mps 758 mmHg 88%
    22:00 +27°C° 0 mm 2 mps 758 mmHg 89%
    23:00 +27°C° 0 mm 2 mps 758 mmHg 90%

    Mañana, 18 Noviembre, Domingo

    Tiempo Temperatura Precipitaciones Viento Presión Humedad
    00:00 +27°C° 0 mm 2 mps 758 mmHg 91%
    01:00 +27°C° 0 mm 2 mps 757 mmHg 91%
    02:00 +26°C° 0 mm 2 mps 757 mmHg 92%
    03:00 +26°C° 0 mm 2 mps 757 mmHg 93%
    04:00 +26°C° 0 mm 2 mps 757 mmHg 93%
    05:00 +26°C° 0 mm 2 mps 757 mmHg 93%
    06:00 +26°C° 0 mm 1 mps 757 mmHg 94%
    07:00 +28°C° 0 mm 2 mps 757 mmHg 86%
    08:00 +30°C° 0 mm 2 mps 758 mmHg 78%
    09:00 +31°C° 0 mm 2 mps 758 mmHg 70%
    10:00 +34°C° 0 mm 2 mps 758 mmHg 63%
    11:00 +35°C° 0 mm 2 mps 758 mmHg 57%
    12:00 +37°C° 0 mm 3 mps 757 mmHg 50%
    13:00 +36°C° 0.3 mm 3 mps 757 mmHg 56%
    14:00 +35°C° 0.3 mm 3 mps 756 mmHg 61%
    15:00 +34°C° 0.3 mm 3 mps 756 mmHg 66%
    16:00 +31°C° 0.1 mm 3 mps 756 mmHg 72%
    17:00 +30°C° 0.1 mm 3 mps 756 mmHg 77%
    18:00 +29°C° 0.1 mm 3 mps 756 mmHg 83%
    19:00 +28°C° 0 mm 3 mps 756 mmHg 85%
    20:00 +28°C° 0 mm 2 mps 757 mmHg 86%
    21:00 +27°C° 0 mm 2 mps 757 mmHg 88%
    22:00 +27°C° 0 mm 2 mps 757 mmHg 88%
    23:00 +27°C° 0 mm 2 mps 757 mmHg 89%

    Pasado mañana, 19 Noviembre, Lunes

    Tiempo Temperatura Precipitaciones Viento Presión Humedad
    00:00 +27°C° 0 mm 3 mps 757 mmHg 90%
    01:00 +27°C° 0 mm 3 mps 757 mmHg 91%
    02:00 +27°C° 0 mm 3 mps 757 mmHg 91%
    03:00 +26°C° 0 mm 3 mps 756 mmHg 92%
    04:00 +26°C° 0 mm 3 mps 756 mmHg 93%
    05:00 +26°C° 0 mm 2 mps 757 mmHg 93%
    06:00 +26°C° 0 mm 2 mps 757 mmHg 94%
    07:00 +28°C° 0 mm 2 mps 757 mmHg 86%
    08:00 +30°C° 0 mm 2 mps 758 mmHg 78%
    09:00 +32°C° 0 mm 2 mps 758 mmHg 70%
    10:00 +34°C° 0 mm 2 mps 758 mmHg 63%
    11:00 +36°C° 0 mm 3 mps 757 mmHg 57%
    12:00 +37°C° 0 mm 3 mps 757 mmHg 51%
    13:00 +36°C° 0.1 mm 3 mps 756 mmHg 55%
    14:00 +35°C° 0.1 mm 3 mps 755 mmHg 59%
    15:00 +34°C° 0.1 mm 3 mps 755 mmHg 63%
    16:00 +33°C° 0 mm 3 mps 755 mmHg 68%
    17:00 +31°C° 0 mm 3 mps 755 mmHg 73%
    18:00 +29°C° 0 mm 3 mps 755 mmHg 79%
    19:00 +29°C° 0 mm 3 mps 756 mmHg 81%
    20:00 +28°C° 0 mm 3 mps 756 mmHg 83%
    21:00 +28°C° 0 mm 3 mps 757 mmHg 85%
    22:00 +28°C° 0 mm 3 mps 757 mmHg 86%
    23:00 +27°C° 0 mm 3 mps 757 mmHg 87%

    20 Noviembre, Martes

    Tiempo Temperatura Precipitaciones Viento Presión Humedad
    00:00 +27°C° 0 mm 3 mps 757 mmHg 89%
    01:00 +27°C° 0 mm 3 mps 757 mmHg 90%
    02:00 +27°C° 0 mm 3 mps 756 mmHg 91%
    03:00 +27°C° 0 mm 3 mps 756 mmHg 92%
    04:00 +27°C° 0.2 mm 3 mps 756 mmHg 92%
    05:00 +27°C° 0.2 mm 3 mps 756 mmHg 93%
    06:00 +26°C° 0.2 mm 2 mps 757 mmHg 94%
    07:00 +28°C° 0 mm 2 mps 757 mmHg 86%
    08:00 +30°C° 0 mm 3 mps 758 mmHg 78%
    09:00 +33°C° 0 mm 3 mps 758 mmHg 70%
    10:00 +33°C° 0.2 mm 3 mps 758 mmHg 69%
    11:00 +34°C° 0.2 mm 3 mps 757 mmHg 68%
    12:00 +34°C° 0.2 mm 3 mps 757 mmHg 67%
    13:00 +33°C° 1.1 mm 3 mps 757 mmHg 71%
    14:00 +33°C° 1.1 mm 3 mps 756 mmHg 75%
    15:00 +31°C° 1.1 mm 3 mps 756 mmHg 79%
    16:00 +30°C° 0.6 mm 3 mps 756 mmHg 83%
    17:00 +29°C° 0.6 mm 3 mps 756 mmHg 87%
    18:00 +28°C° 0.6 mm 3 mps 756 mmHg 91%
    19:00 +28°C° 0.1 mm 3 mps 757 mmHg 91%
    20:00 +27°C° 0.1 mm 3 mps 758 mmHg 92%
    21:00 +27°C° 0.1 mm 3 mps 758 mmHg 93%
    22:00 +27°C° 0 mm 3 mps 758 mmHg 93%
    23:00 +27°C° 0 mm 3 mps 758 mmHg 94%

    21 Noviembre, Miércoles

    Tiempo Temperatura Precipitaciones Viento Presión Humedad
    00:00 +27°C° 0 mm 3 mps 757 mmHg 94%
    01:00 +27°C° 0 mm 3 mps 757 mmHg 94%
    02:00 +26°C° 0 mm 3 mps 756 mmHg 95%
    03:00 +26°C° 0 mm 3 mps 756 mmHg 95%
    04:00 +26°C° 0 mm 3 mps 756 mmHg 95%
    05:00 +26°C° 0 mm 3 mps 756 mmHg 95%
    06:00 +26°C° 0 mm 3 mps 757 mmHg 95%
    07:00 +28°C° 0 mm 3 mps 757 mmHg 88%
    08:00 +29°C° 0 mm 3 mps 758 mmHg 82%
    09:00 +31°C° 0 mm 3 mps 758 mmHg 75%
    10:00 +33°C° 0.6 mm 3 mps 758 mmHg 74%
    11:00 +33°C° 0.6 mm 4 mps 757 mmHg 72%
    12:00 +34°C° 0.6 mm 4 mps 757 mmHg 70%
    13:00 +33°C° 0.6 mm 4 mps 756 mmHg 71%
    14:00 +33°C° 0.6 mm 4 mps 756 mmHg 72%
    15:00 +33°C° 0.6 mm 4 mps 755 mmHg 73%
    16:00 +32°C° 0.2 mm 4 mps 756 mmHg 77%
    17:00 +30°C° 0.2 mm 4 mps 756 mmHg 81%
    18:00 +28°C° 0.2 mm 3 mps 756 mmHg 85%
    19:00 +28°C° 0.1 mm 3 mps 757 mmHg 87%
    20:00 +28°C° 0.1 mm 3 mps 758 mmHg 88%
    21:00 +27°C° 0.1 mm 3 mps 758 mmHg 89%
    22:00 +27°C° 0 mm 3 mps 758 mmHg 90%
    23:00 +27°C° 0 mm 3 mps 758 mmHg 90%

    22 Noviembre, Jueves

    Tiempo Temperatura Precipitaciones Viento Presión Humedad
    00:00 +27°C° 0 mm 3 mps 757 mmHg 91%
    01:00 +27°C° 0.2 mm 3 mps 757 mmHg 92%
    02:00 +27°C° 0.2 mm 3 mps 756 mmHg 92%
    03:00 +27°C° 0.2 mm 3 mps 756 mmHg 93%
    04:00 +27°C° 0 mm 3 mps 756 mmHg 93%
    05:00 +27°C° 0 mm 3 mps 756 mmHg 94%
    06:00 +26°C° 0 mm 4 mps 757 mmHg 94%
    07:00 +28°C° 0.1 mm 4 mps 757 mmHg 88%
    08:00 +30°C° 0.1 mm 4 mps 758 mmHg 81%
    09:00 +32°C° 0.1 mm 4 mps 758 mmHg 75%
    10:00 +32°C° 0.4 mm 4 mps 758 mmHg 74%
    11:00 +33°C° 0.4 mm 4 mps 757 mmHg 73%
    12:00 +33°C° 0.4 mm 4 mps 757 mmHg 73%
    13:00 +33°C° 0.5 mm 4 mps 756 mmHg 74%
    14:00 +32°C° 0.5 mm 4 mps 756 mmHg 76%
    15:00 +32°C° 0.5 mm 4 mps 755 mmHg 77%
    16:00 +30°C° 0.3 mm 4 mps 755 mmHg 81%
    17:00 +29°C° 0.3 mm 3 mps 756 mmHg 86%
    18:00 +28°C° 0.3 mm 3 mps 756 mmHg 90%
    19:00 +28°C° 0.2 mm 2 mps 757 mmHg 91%
    20:00 +27°C° 0.2 mm 2 mps 757 mmHg 92%
    21:00 +27°C° 0.2 mm 2 mps 758 mmHg 93%
    22:00 +27°C° 0.2 mm 2 mps 757 mmHg 94%
    23:00 +27°C° 0.2 mm 1 mps 757 mmHg 94%
    Mostrar más